DateTimeUTC,F1_A11,F1_S11,BsB_S11,BsG_S11,BsR_S11,BbsB_S11,BbsG_S11,BbsR_S11,BaB_A11,BaG_A11,BaR_A11,Tu_S11,T_S11,Uu_S11,U_S11,P_S11,T1_A11
2021-01-22T02:00:00Z,00000200,21000000,,,,,,,-000.03,0000.04,0000.15,16.5,23.4,,00.0,0650.7,30.9
2021-01-22T02:01:00Z,00000200,21000000,,,,,,,0000.61,0000.65,0000.12,16.5,23.4,,00.0,0650.7,30.9
2021-01-22T02:02:00Z,00000200,21000000,,,,,,,-000.11,0000.14,0000.15,16.5,23.5,,00.0,0650.7,30.9
2021-01-22T02:03:00Z,00000200,61000000,,,,,,,0008.67,0007.78,0006.22,16.5,23.5,,00.0,0650.7,30.9
2021-01-22T02:04:00Z,00000200,41000000,0001.78,0001.54,0000.95,0000.51,0000.44,0000.70,0028.90,0026.43,0020.94,16.7,23.3,,00.0,0651.5,30.9
2021-01-22T02:05:00Z,00000200,01000000,0002.06,0001.56,0001.25,0000.62,0000.33,0000.53,0032.28,0029.20,0023.45,16.7,23.2,,00.0,0651.6,30.9
2021-01-22T02:06:00Z,00000200,01000000,0000.89,0000.75,0000.60,0000.71,0000.25,0000.21,0019.02,0017.75,0014.20,16.7,23.2,,00.0,0651.6,30.8
2021-01-22T02:07:00Z,00000200,01000000,0001.40,0000.31,0000.61,-000.28,0000.29,0000.15,0005.76,0005.80,0004.33,16.7,23.2,00.0,00.0,0651.5,30.8
2021-01-22T02:08:00Z,00000200,01000000,0000.16,0000.22,0000.14,-000.22,0000.19,0000.25,0007.69,0006.96,0005.23,16.7,23.2,,00.0,0651.5,30.8
2021-01-22T02:09:00Z,00000200,01000000,0000.50,0000.65,0000.55,0000.31,0000.32,0000.41,0008.25,0007.27,0005.96,16.6,23.2,,00.0,0651.5,30.8
2021-01-22T02:10:00Z,00000200,01000000,0003.24,0002.48,0001.70,0001.05,0000.42,0000.46,0047.80,0044.15,0035.04,16.6,23.2,,00.0,0651.5,30.8
2021-01-22T02:11:00Z,00000200,01000000,0003.25,0002.60,0001.51,0000.52,0000.36,0000.40,0047.24,0042.97,0034.00,16.6,23.1,,00.0,0651.5,30.8
2021-01-22T02:12:00Z,00000200,01000000,0001.81,0001.37,0000.90,0000.14,0000.22,0000.40,0025.63,0024.45,0019.10,16.6,23.1,,00.0,0651.6,30.8
2021-01-22T02:13:00Z,00000200,01000000,0000.01,0000.05,0000.26,0000.43,0000.12,0000.16,0001.68,0001.30,0001.11,16.7,23.1,,00.0,0651.6,30.8
2021-01-22T02:14:00Z,00000200,01000000,-000.04,0000.21,0000.38,-000.37,-000.07,0000.02,0001.03,0000.76,0000.79,16.8,23.1,,00.0,0651.7,30.9
2021-01-22T02:15:00Z,00000200,01000000,0000.31,0000.20,0000.22,-000.01,0000.03,-000.17,0000.42,0000.81,0000.42,16.8,23.2,,00.0,0651.7,30.9
2021-01-22T02:16:00Z,00000200,01000000,-000.52,0000.08,-000.21,0000.26,0000.26,0000.07,0000.64,0000.47,0000.33,16.9,23.2,,00.0,0651.7,30.9
2021-01-22T02:17:00Z,00000200,01000000,-000.15,0000.19,0000.07,0000.19,0000.07,-000.03,0000.83,0000.79,0000.61,16.9,23.2,,00.0,0651.7,30.9
2021-01-22T02:18:00Z,00000200,01000000,0000.38,-000.13,0000.53,-000.10,-000.03,0000.00,0000.75,0000.38,0000.53,16.9,23.3,,00.0,0651.8,30.9
2021-01-22T02:19:00Z,00000200,01000000,0000.82,0000.12,0000.21,0000.36,0000.02,0000.16,0000.35,0000.54,0000.14,16.9,23.2,,00.0,0651.7,30.9
2021-01-22T02:20:00Z,00000200,01000000,0000.60,0000.21,0000.16,-000.21,0000.29,0000.03,0000.30,0000.17,0000.31,16.9,23.2,,00.0,0651.8,30.9
2021-01-22T02:21:00Z,00000200,01000000,0000.16,0000.08,0000.04,0000.56,-000.19,0000.10,0000.30,0000.69,0000.36,16.8,23.2,,00.0,0651.8,30.9
2021-01-22T02:22:00Z,00000200,01000000,0000.20,0000.32,0000.37,0000.24,0000.08,0000.29,0000.54,0000.57,0000.21,16.8,23.2,00.0,00.0,0651.8,30.9
2021-01-22T02:23:00Z,00000200,01000000,0000.30,0000.17,-000.17,0000.09,0000.04,0000.19,0000.62,-000.01,0000.41,16.8,23.2,,00.0,0651.9,30.9
2021-01-22T02:24:00Z,00000200,01000000,0000.23,0000.14,0000.13,0000.23,0000.05,-000.14,0000.37,0000.44,0000.33,16.8,23.2,,00.0,0651.9,30.9
2021-01-22T02:25:00Z,00000200,01000000,0000.65,-000.15,0000.42,0000.32,0000.09,0000.09,0000.30,0000.30,0000.36,16.8,23.2,,00.0,0651.9,30.9
2021-01-22T02:26:00Z,00000200,01000000,0000.46,0000.12,0000.12,0000.02,0000.04,-000.11,0000.19,0000.15,0000.08,16.8,23.2,00.0,00.0,0651.9,30.9
2021-01-22T02:27:00Z,00000200,01000000,0000.70,-000.07,0000.28,0000.24,-000.10,0000.24,0000.58,0000.27,0000.34,16.8,23.2,,00.0,0651.9,30.9
2021-01-22T02:28:00Z,00000200,01000000,0000.41,-000.09,0000.39,0000.12,0000.03,0000.05,0000.12,0000.48,0000.39,16.8,23.2,,00.0,0651.9,30.9
2021-01-22T02:29:00Z,00000200,01000000,0000.29,0000.17,0000.27,0000.13,-000.03,0000.09,0000.44,0000.19,-000.22,16.9,23.2,,00.0,0651.9,30.9
2021-01-22T02:30:00Z,00000200,01000000,0000.42,0000.24,0000.10,0000.32,0000.21,0000.10,0000.49,0000.24,0000.16,16.9,23.2,,00.0,0651.9,30.9
2021-01-22T02:31:00Z,00000200,01000000,-000.08,0000.26,0000.38,0000.41,0000.08,0000.12,0000.52,0000.54,0000.60,16.9,23.2,,00.0,0651.9,30.9
2021-01-22T02:32:00Z,00000200,01000000,-000.54,0000.44,0000.21,0000.40,0000.12,0000.11,-000.01,0000.37,0000.31,16.9,23.2,00.0,00.0,0652.0,30.9
2021-01-22T02:33:00Z,00000200,01000000,0000.31,-000.12,0000.04,0000.23,0000.19,0000.05,-000.02,0000.32,-000.01,16.9,23.2,,00.0,0652.0,30.9
2021-01-22T02:34:00Z,00000200,01000000,0000.49,-000.09,0000.26,-000.15,0000.05,0000.07,0000.15,-000.07,0000.01,16.8,23.2,00.0,00.0,0651.9,30.9
2021-01-22T02:35:00Z,00000200,01000000,-000.06,0000.22,0000.40,0000.22,-000.04,0000.01,0000.69,0000.10,0000.29,16.8,23.2,,00.0,0651.9,30.9
2021-01-22T02:36:00Z,00000200,01000000,0000.14,0000.08,-000.10,-000.21,-000.02,0000.08,0000.57,0000.41,0000.31,16.8,23.2,,00.0,0652.0,30.9
2021-01-22T02:37:00Z,00000200,01000000,0000.26,0000.16,0000.27,-000.60,0000.07,-000.07,-000.43,0000.19,0000.06,16.8,23.2,,00.0,0652.0,30.9
2021-01-22T02:38:00Z,00000200,01000000,0001.03,0000.14,-000.27,0000.83,0000.24,-000.19,0000.48,0000.30,0000.14,16.8,23.2,,00.0,0652.0,30.9
2021-01-22T02:39:00Z,00000200,01000000,-000.34,0000.08,0000.14,0000.08,-000.05,0000.03,0000.09,-000.03,0000.13,16.7,23.2,,00.0,0651.9,30.9
2021-01-22T02:40:00Z,00000200,01000000,-000.16,0000.00,0000.21,0000.13,0000.25,0000.20,0000.41,0000.40,0000.17,16.7,23.2,,00.0,0651.9,30.8
2021-01-22T02:41:00Z,00000200,01000000,0000.34,-000.01,-000.04,0000.10,0000.30,0000.16,0000.08,-000.11,0000.09,16.7,23.2,,00.0,0651.9,30.8
2021-01-22T02:42:00Z,00000200,01000000,0000.04,0000.17,0000.07,0000.21,-000.30,-000.09,0000.12,0000.20,0000.35,16.7,23.1,,00.0,0652.0,30.8
2021-01-22T02:43:00Z,00000200,01000000,0000.08,-000.06,0000.19,0000.01,0000.15,0000.04,0000.34,0000.23,-000.20,16.8,23.2,,00.0,0651.9,30.9
2021-01-22T02:44:00Z,00000200,01000000,-000.64,0000.18,0000.18,0000.13,0000.05,0000.32,0000.17,0000.00,0000.29,16.8,23.2,,00.0,0651.9,30.9
2021-01-22T02:45:00Z,00000200,01000000,0000.04,0000.28,0000.30,0000.54,-000.04,0000.01,0000.03,0000.42,-000.01,16.8,23.2,,00.0,0652.0,30.9
2021-01-22T02:46:00Z,00000200,01000000,-000.19,0000.33,-000.02,-000.28,0000.22,0000.09,0000.24,0000.24,0000.39,16.8,23.2,,00.0,0652.0,30.9
2021-01-22T02:47:00Z,00000200,01000000,0000.37,-000.08,0000.21,0000.12,0000.18,-000.10,0000.43,0000.62,0000.25,16.8,23.2,,00.0,0652.0,30.9
2021-01-22T02:48:00Z,00000200,01000000,0000.44,-000.06,0000.10,0000.38,0000.08,0000.26,-000.01,-000.04,0000.13,16.8,23.2,,00.0,0652.0,30.9
2021-01-22T02:49:00Z,00000200,01000000,-000.33,-000.03,0000.27,0000.08,0000.03,-000.08,0000.49,-000.09,-000.20,16.8,23.1,,00.0,0652.0,30.9
2021-01-22T02:50:00Z,00000200,01000000,0000.32,0000.10,0000.17,0000.48,0000.02,0000.02,-000.01,0000.41,0000.01,16.7,23.1,,00.0,0652.0,30.9
2021-01-22T02:51:00Z,00000200,01000000,0000.41,0000.24,0000.29,0000.13,-000.13,0000.09,0000.44,0000.25,0000.43,16.7,23.1,,00.0,0652.0,30.9
2021-01-22T02:52:00Z,00000200,01000000,0000.30,-000.14,0000.28,0000.25,0000.33,0000.10,0000.02,0000.21,-000.07,16.7,23.1,,00.0,0652.0,30.9
2021-01-22T02:53:00Z,00000200,01000000,0000.34,0000.09,0000.22,0000.03,-000.33,-000.01,0000.47,0000.23,0000.46,16.7,23.1,,00.0,0652.0,30.8
2021-01-22T02:54:00Z,00000200,01000000,-000.45,0000.42,0000.16,0000.03,0000.11,-000.03,-000.05,-000.14,0000.00,16.7,23.1,,00.0,0652.1,30.8
2021-01-22T02:55:00Z,00000200,01000000,0000.24,-000.02,0000.03,0000.46,-000.03,0000.14,0000.30,0000.43,0000.19,16.6,23.1,,00.0,0652.1,30.8
2021-01-22T02:56:00Z,00000200,01000000,0000.15,0000.07,0000.38,0000.55,-000.02,0000.33,-000.43,-000.51,-000.28,16.6,23.1,,00.0,0652.1,30.8
2021-01-22T02:57:00Z,00000200,41000000,,,,,,,0000.47,0000.49,0000.43,16.7,23.1,,00.0,0652.1,30.8
2021-01-22T02:58:00Z,00000200,61000000,,,,,,,0000.36,0000.26,0000.18,16.4,23.2,,00.0,0651.2,30.8
2021-01-22T02:59:00Z,00000200,21000000,,,,,,,-000.00,0000.08,-000.21,16.4,23.3,,00.0,0651.2,30.9
